Wetterdaten: aktuell Dienstag, 17.09.2019 19:00
Datum Zeit Temp. I. Temp. A. Teich Feuchte I. Feuchte A. Luftdruck Regen Wind Richtung Richtung Sonnenschein T Regen ET Solar Taupunkt Windchill Windben Empfang
17.09.2019 19:00 19,3 C 14,4 C 18,3 C 59 % 66 % 1015,2 hPa 0,0 l/m 10,9 km/h SW 229 0 min 0 min 0,000 mm 13 W/m 8,1 C 12,0 C 20,9 km/h 99,15 %
17.09.2019 18:55 19,4 C 14,5 C 17,8 C 59 % 67 % 1015,2 hPa 0,0 l/m 11,3 km/h S-SW 207 5 min 0 min 0,000 mm 18 W/m 8,4 C 12,0 C 17,7 km/h 99,10 %
17.09.2019 18:50 19,4 C 14,7 C 17,8 C 60 % 67 % 1015,0 hPa 0,0 l/m 10,8 km/h W-SW 250 5 min 0 min 0,000 mm 22 W/m 8,6 C 12,4 C 22,5 km/h 99,15 %
17.09.2019 18:45 19,4 C 14,9 C 18,3 C 60 % 68 % 1015,0 hPa 0,0 l/m 9,8 km/h S-SW 202 0 min 0 min 0,000 mm 25 W/m 9,0 C 13,1 C 19,3 km/h 99,17 %
17.09.2019 18:40 19,4 C 15,1 C 18,3 C 60 % 68 % 1015,0 hPa 0,0 l/m 10,3 km/h SW 231 0 min 0 min 0,000 mm 31 W/m 9,2 C 13,1 C 17,7 km/h 95,76 %
17.09.2019 18:35 19,4 C 15,2 C 18,3 C 60 % 68 % 1015,0 hPa 0,0 l/m 10,4 km/h S-SW 198 0 min 0 min 0,000 mm 32 W/m 9,3 C 13,2 C 19,3 km/h 97,50 %
17.09.2019 18:30 19,4 C 15,4 C 18,3 C 60 % 68 % 1014,9 hPa 0,0 l/m 8,0 km/h SW 220 0 min 0 min 0,000 mm 39 W/m 9,5 C 14,5 C 12,9 km/h 95,00 %
17.09.2019 18:25 19,4 C 15,6 C 18,3 C 61 % 68 % 1014,9 hPa 0,0 l/m 11,5 km/h SW 223 0 min 0 min 0,000 mm 52 W/m 9,7 C 13,2 C 19,3 km/h 96,49 %
17.09.2019 18:20 19,4 C 15,7 C 17,8 C 61 % 67 % 1014,9 hPa 0,0 l/m 14,4 km/h W-SW 238 0 min 0 min 0,000 mm 66 W/m 9,6 C 12,2 C 24,1 km/h 96,67 %
17.09.2019 18:15 19,4 C 15,8 C 17,8 C 61 % 67 % 1015,0 hPa 0,0 l/m 13,9 km/h SW 231 0 min 0 min 0,000 mm 75 W/m 9,7 C 12,5 C 25,7 km/h 97,44 %
17.09.2019 18:10 19,4 C 15,9 C 17,8 C 62 % 69 % 1015,0 hPa 0,0 l/m 14,1 km/h SW 224 5 min 0 min 0,000 mm 94 W/m 10,2 C 12,6 C 22,5 km/h 99,15 %
17.09.2019 18:05 19,4 C 16,0 C 17,8 C 62 % 70 % 1014,9 hPa 0,0 l/m 12,9 km/h W 261 5 min 0 min 0,153 mm 109 W/m 10,5 C 13,1 C 17,7 km/h 100,00 %
17.09.2019 18:00 19,4 C 16,1 C 17,8 C 62 % 70 % 1015,0 hPa 0,0 l/m 14,2 km/h SW 226 5 min 0 min 0,000 mm 122 W/m 10,6 C 12,8 C 22,5 km/h 99,15 %
17.09.2019 17:55 19,4 C 16,2 C 17,8 C 62 % 73 % 1015,0 hPa 0,0 l/m 9,6 km/h W-SW 246 5 min 0 min 0,000 mm 140 W/m 11,4 C 14,6 C 17,7 km/h 100,00 %
17.09.2019 17:50 19,4 C 16,2 C 17,8 C 62 % 73 % 1015,0 hPa 0,0 l/m 11,0 km/h W 262 5 min 0 min 0,000 mm 186 W/m 11,4 C 14,0 C 20,9 km/h 97,78 %
17.09.2019 17:45 19,4 C 16,1 C 17,8 C 62 % 73 % 1015,0 hPa 0,0 l/m 14,0 km/h W-SW 240 5 min 0 min 0,000 mm 189 W/m 11,3 C 12,8 C 27,4 km/h 100,00 %
17.09.2019 17:40 19,4 C 16,2 C 17,8 C 62 % 74 % 1015,0 hPa 0,0 l/m 13,3 km/h SW 214 5 min 0 min 0,000 mm 236 W/m 11,6 C 13,2 C 19,3 km/h 100,00 %
17.09.2019 17:35 19,4 C 16,2 C 17,8 C 62 % 74 % 1015,0 hPa 0,0 l/m 13,2 km/h SW 215 5 min 0 min 0,000 mm 239 W/m 11,6 C 13,2 C 24,1 km/h 100,00 %
17.09.2019 17:30 19,4 C 16,1 C 17,8 C 63 % 77 % 1015,1 hPa 0,0 l/m 11,5 km/h W-SW 238 5 min 0 min 0,000 mm 225 W/m 12,1 C 13,7 C 19,3 km/h 100,00 %
17.09.2019 17:25 19,4 C 15,8 C 17,8 C 63 % 76 % 1015,0 hPa 0,0 l/m 13,9 km/h SW 229 5 min 0 min 0,000 mm 234 W/m 11,6 C 12,5 C 22,5 km/h 98,29 %
17.09.2019 17:20 19,3 C 15,7 C 17,8 C 63 % 78 % 1015,1 hPa 0,0 l/m 10,3 km/h SW 225 5 min 0 min 0,000 mm 242 W/m 11,9 C 13,8 C 17,7 km/h 99,17 %
17.09.2019 17:15 19,3 C 15,4 C 17,8 C 63 % 79 % 1015,1 hPa 0,0 l/m 8,9 km/h W-SW 246 5 min 0 min 0,000 mm 228 W/m 11,8 C 14,1 C 14,5 km/h 100,00 %
17.09.2019 17:10 19,2 C 15,2 C 17,8 C 63 % 80 % 1015,1 hPa 0,0 l/m 9,3 km/h SW 232 5 min 0 min 0,000 mm 218 W/m 11,8 C 13,7 C 16,1 km/h 99,15 %
17.09.2019 17:05 19,2 C 15,1 C 17,8 C 63 % 81 % 1015,1 hPa 0,0 l/m 8,8 km/h S-SW 207 5 min 0 min 0,178 mm 258 W/m 11,9 C 13,8 C 16,1 km/h 100,00 %
17.09.2019 17:00 19,2 C 14,9 C 17,8 C 63 % 80 % 1015,2 hPa 0,0 l/m 11,3 km/h W-SW 239 5 min 0 min 0,000 mm 260 W/m 11,5 C 12,4 C 17,7 km/h 99,11 %
17.09.2019 16:55 19,1 C 15,1 C 17,8 C 63 % 81 % 1015,1 hPa 0,0 l/m 7,6 km/h W-SW 244 5 min 0 min 0,000 mm 265 W/m 11,9 C 14,4 C 14,5 km/h 98,29 %
17.09.2019 16:50 19,0 C 14,9 C 17,8 C 63 % 81 % 1015,1 hPa 0,0 l/m 10,1 km/h S-SW 201 5 min 0 min 0,000 mm 288 W/m 11,7 C 13,0 C 17,7 km/h 97,50 %
17.09.2019 16:45 18,9 C 14,8 C 17,8 C 63 % 81 % 1015,1 hPa 0,0 l/m 10,1 km/h S-SW 213 5 min 0 min 0,000 mm 225 W/m 11,6 C 12,9 C 16,1 km/h 97,44 %
17.09.2019 16:40 18,9 C 14,7 C 17,8 C 63 % 82 % 1015,2 hPa 0,0 l/m 11,9 km/h SW 221 5 min 0 min 0,000 mm 290 W/m 11,7 C 12,0 C 19,3 km/h 95,00 %
17.09.2019 16:35 18,9 C 14,7 C 17,8 C 63 % 81 % 1015,2 hPa 0,0 l/m 13,6 km/h SW 220 5 min 0 min 0,000 mm 311 W/m 11,5 C 11,3 C 20,9 km/h 94,02 %
17.09.2019 16:30 18,8 C 14,6 C 17,8 C 64 % 82 % 1015,4 hPa 0,0 l/m 13,1 km/h SW 219 5 min 0 min 0,000 mm 275 W/m 11,6 C 11,4 C 20,9 km/h 95,83 %
17.09.2019 16:25 18,7 C 14,5 C 17,8 C 64 % 82 % 1015,5 hPa 0,0 l/m 12,9 km/h SW 217 5 min 0 min 0,000 mm 265 W/m 11,5 C 11,3 C 19,3 km/h 99,15 %
17.09.2019 16:20 18,7 C 14,6 C 17,8 C 64 % 82 % 1015,5 hPa 0,0 l/m 13,7 km/h W-SW 242 5 min 0 min 0,000 mm 289 W/m 11,6 C 11,2 C 19,3 km/h 100,00 %
17.09.2019 16:15 18,6 C 14,6 C 17,8 C 64 % 83 % 1015,4 hPa 0,0 l/m 12,4 km/h W-SW 246 5 min 0 min 0,000 mm 397 W/m 11,7 C 11,7 C 19,3 km/h 99,11 %
17.09.2019 16:10 18,6 C 14,4 C 17,8 C 64 % 84 % 1015,4 hPa 0,0 l/m 10,2 km/h S-SW 202 5 min 0 min 0,000 mm 366 W/m 11,7 C 12,4 C 17,7 km/h 99,27 %
17.09.2019 16:05 18,5 C 14,1 C 17,8 C 64 % 84 % 1015,3 hPa 0,0 l/m 12,0 km/h SW 229 5 min 0 min 0,177 mm 349 W/m 11,4 C 11,2 C 20,9 km/h 100,00 %
17.09.2019 16:00 18,5 C 14,1 C 17,8 C 64 % 84 % 1015,5 hPa 0,0 l/m 13,6 km/h SW 224 5 min 0 min 0,000 mm 326 W/m 11,4 C 10,6 C 20,9 km/h 98,29 %
17.09.2019 15:55 18,4 C 13,9 C 17,8 C 63 % 85 % 1015,6 hPa 0,0 l/m 13,0 km/h SW 214 0 min 0 min 0,000 mm 205 W/m 11,4 C 10,6 C 19,3 km/h 99,19 %
17.09.2019 15:50 18,4 C 14,1 C 17,8 C 63 % 83 % 1015,6 hPa 0,0 l/m 13,5 km/h SW 231 5 min 0 min 0,000 mm 434 W/m 11,3 C 10,6 C 22,5 km/h 99,05 %
17.09.2019 15:45 18,3 C 13,9 C 17,8 C 63 % 85 % 1015,8 hPa 0,0 l/m 11,5 km/h W-SW 242 5 min 0 min 0,000 mm 314 W/m 11,4 C 11,2 C 16,1 km/h 98,33 %
17.09.2019 15:40 18,3 C 13,8 C 17,8 C 63 % 85 % 1015,8 hPa 0,0 l/m 13,2 km/h SW 229 0 min 0 min 0,000 mm 276 W/m 11,3 C 10,4 C 22,5 km/h 99,15 %
17.09.2019 15:35 18,3 C 14,1 C 17,8 C 63 % 83 % 1015,9 hPa 0,0 l/m 13,6 km/h SW 231 0 min 0 min 0,000 mm 274 W/m 11,3 C 10,6 C 22,5 km/h 100,00 %
17.09.2019 15:30 18,3 C 13,9 C 17,8 C 63 % 85 % 1015,9 hPa 0,0 l/m 16,7 km/h SW 227 0 min 0 min 0,000 mm 289 W/m 11,4 C 9,3 C 25,7 km/h 97,44 %
17.09.2019 15:25 18,2 C 13,9 C 17,8 C 63 % 85 % 1016,1 hPa 0,0 l/m 11,8 km/h W-SW 253 5 min 0 min 0,000 mm 387 W/m 11,4 C 11,1 C 17,7 km/h 99,17 %
17.09.2019 15:20 18,2 C 13,7 C 17,8 C 63 % 85 % 1016,0 hPa 0,0 l/m 11,0 km/h SW 226 5 min 0 min 0,000 mm 310 W/m 11,2 C 11,2 C 17,7 km/h 99,07 %
17.09.2019 15:15 18,2 C 13,6 C 17,8 C 63 % 85 % 1016,1 hPa 0,0 l/m 13,5 km/h SW 223 0 min 0 min 0,000 mm 212 W/m 11,1 C 10,1 C 19,3 km/h 98,37 %
17.09.2019 15:10 18,2 C 13,7 C 17,8 C 63 % 84 % 1016,1 hPa 0,0 l/m 12,6 km/h SW 215 0 min 0 min 0,000 mm 218 W/m 11,0 C 10,5 C 20,9 km/h 98,25 %
17.09.2019 15:05 18,2 C 13,8 C 17,8 C 63 % 83 % 1016,0 hPa 0,0 l/m 13,7 km/h SW 227 0 min 0 min 0,178 mm 269 W/m 11,0 C 10,2 C 20,9 km/h 99,12 %
17.09.2019 15:00 18,2 C 14,1 C 17,8 C 64 % 83 % 1015,9 hPa 0,0 l/m 12,5 km/h SW 226 0 min 0 min 0,000 mm 289 W/m 11,3 C 11,0 C 17,7 km/h 99,17 %
17.09.2019 14:55 18,1 C 14,2 C 17,8 C 64 % 83 % 1015,9 hPa 0,0 l/m 11,8 km/h SW 225 5 min 0 min 0,000 mm 333 W/m 11,4 C 11,4 C 20,9 km/h 97,52 %
17.09.2019 14:50 18,1 C 14,0 C 17,8 C 63 % 83 % 1016,0 hPa 0,0 l/m 14,1 km/h S-SW 196 5 min 0 min 0,000 mm 481 W/m 11,2 C 10,3 C 24,1 km/h 97,44 %
17.09.2019 14:45 18,1 C 14,1 C 17,8 C 63 % 85 % 1016,1 hPa 0,0 l/m 12,0 km/h SW 222 5 min 0 min 0,000 mm 531 W/m 11,6 C 11,2 C 20,9 km/h 96,58 %
17.09.2019 14:40 18,0 C 13,8 C 17,8 C 63 % 86 % 1016,1 hPa 0,0 l/m 13,6 km/h W-SW 237 5 min 0 min 0,000 mm 591 W/m 11,5 C 10,2 C 24,1 km/h 97,30 %
17.09.2019 14:35 18,0 C 13,4 C 17,8 C 63 % 86 % 1016,2 hPa 0,0 l/m 10,9 km/h SW 225 5 min 0 min 0,000 mm 359 W/m 11,1 C 10,9 C 19,3 km/h 95,83 %
17.09.2019 14:30 18,0 C 13,4 C 17,8 C 63 % 85 % 1016,2 hPa 0,0 l/m 11,1 km/h S-SW 213 0 min 0 min 0,000 mm 334 W/m 10,9 C 10,8 C 19,3 km/h 97,44 %
17.09.2019 14:25 18,0 C 13,2 C 17,8 C 63 % 86 % 1016,3 hPa 0,0 l/m 10,6 km/h S-SW 205 0 min 0 min 0,000 mm 265 W/m 10,9 C 10,8 C 17,7 km/h 95,73 %
17.09.2019 14:20 18,0 C 13,0 C 17,8 C 63 % 87 % 1016,4 hPa 0,0 l/m 13,0 km/h S 172 0 min 0 min 0,000 mm 238 W/m 10,9 C 9,5 C 19,3 km/h 99,15 %
17.09.2019 14:15 18,0 C 12,7 C 17,8 C 63 % 87 % 1016,4 hPa 0,0 l/m 9,8 km/h W-SW 245 0 min 0 min 0,000 mm 192 W/m 10,6 C 10,7 C 16,1 km/h 100,00 %
17.09.2019 14:10 18,0 C 12,5 C 17,8 C 63 % 87 % 1016,5 hPa 0,0 l/m 6,9 km/h S-SW 193 0 min 0 min 0,000 mm 143 W/m 10,4 C 12,2 C 14,5 km/h 98,33 %
17.09.2019 14:05 17,9 C 12,4 C 17,8 C 63 % 86 % 1016,6 hPa 0,0 l/m 10,3 km/h SO 134 0 min 0 min 0,127 mm 122 W/m 10,1 C 10,1 C 16,1 km/h 97,44 %
17.09.2019 14:00 17,9 C 12,6 C 17,8 C 63 % 87 % 1016,6 hPa 0,0 l/m 9,9 km/h S-SW 204 0 min 0 min 0,000 mm 177 W/m 10,5 C 10,5 C 16,1 km/h 98,29 %
17.09.2019 13:55 17,9 C 12,6 C 17,8 C 63 % 87 % 1016,6 hPa 0,0 l/m 8,3 km/h SW 221 0 min 0 min 0,000 mm 202 W/m 10,5 C 11,4 C 16,1 km/h 98,29 %
17.09.2019 13:50 17,9 C 12,3 C 17,8 C 63 % 88 % 1016,6 hPa 0,0 l/m 6,9 km/h SW 226 0 min 0 min 0,000 mm 159 W/m 10,4 C 12,0 C 12,9 km/h 100,00 %
17.09.2019 13:45 17,9 C 12,3 C 17,8 C 63 % 88 % 1016,6 hPa 0,0 l/m 7,3 km/h SW 235 0 min 0 min 0,000 mm 154 W/m 10,4 C 11,7 C 11,3 km/h 100,00 %
17.09.2019 13:40 17,9 C 12,3 C 17,8 C 63 % 87 % 1016,7 hPa 0,0 l/m 7,8 km/h S-SW 209 0 min 0 min 0,000 mm 186 W/m 10,2 C 11,4 C 11,3 km/h 97,44 %
17.09.2019 13:35 17,9 C 12,3 C 17,8 C 63 % 87 % 1016,7 hPa 0,0 l/m 10,0 km/h SW 232 0 min 0 min 0,000 mm 202 W/m 10,2 C 10,1 C 16,1 km/h 99,17 %
17.09.2019 13:30 17,9 C 12,3 C 17,8 C 63 % 87 % 1016,8 hPa 0,0 l/m 11,4 km/h W-SW 240 0 min 0 min 0,000 mm 206 W/m 10,2 C 9,4 C 16,1 km/h 96,43 %
17.09.2019 13:25 17,9 C 12,3 C 17,8 C 63 % 87 % 1016,8 hPa 0,0 l/m 12,3 km/h SW 229 0 min 0 min 0,000 mm 254 W/m 10,2 C 9,0 C 19,3 km/h 98,33 %
17.09.2019 13:20 17,9 C 12,3 C 17,8 C 63 % 88 % 1016,9 hPa 0,0 l/m 9,0 km/h W-NW 284 0 min 0 min 0,000 mm 179 W/m 10,4 C 10,7 C 16,1 km/h 99,15 %
17.09.2019 13:15 17,9 C 12,2 C 17,8 C 63 % 88 % 1017,0 hPa 0,0 l/m 10,4 km/h SW 231 0 min 0 min 0,000 mm 271 W/m 10,3 C 9,8 C 14,5 km/h 97,30 %
17.09.2019 13:10 17,9 C 12,2 C 17,8 C 63 % 88 % 1016,9 hPa 0,0 l/m 9,7 km/h W-SW 237 0 min 0 min 0,000 mm 233 W/m 10,3 C 10,2 C 16,1 km/h 98,25 %
17.09.2019 13:05 17,9 C 12,3 C 17,8 C 63 % 88 % 1017,0 hPa 0,0 l/m 9,7 km/h W 271 0 min 0 min 0,000 mm 303 W/m 10,4 C 10,3 C 14,5 km/h 100,00 %
17.09.2019 13:00 17,9 C 12,3 C 17,8 C 63 % 89 % 1017,1 hPa 0,0 l/m 9,3 km/h S-SW 205 5 min 0 min 0,127 mm 418 W/m 10,5 C 10,5 C 16,1 km/h 100,00 %
17.09.2019 12:55 17,9 C 12,2 C 17,8 C 63 % 89 % 1017,1 hPa 0,0 l/m 11,0 km/h W-SW 250 0 min 0 min 0,000 mm 308 W/m 10,4 C 9,5 C 17,7 km/h 99,15 %
17.09.2019 12:50 17,9 C 11,9 C 17,8 C 63 % 89 % 1017,1 hPa 0,0 l/m 9,3 km/h SW 217 0 min 0 min 0,000 mm 280 W/m 10,1 C 10,1 C 14,5 km/h 96,67 %
17.09.2019 12:45 17,9 C 11,9 C 17,8 C 63 % 90 % 1017,2 hPa 0,0 l/m 9,7 km/h W-SW 239 0 min 0 min 0,000 mm 259 W/m 10,3 C 9,9 C 16,1 km/h 94,87 %
17.09.2019 12:40 18,0 C 11,8 C 17,8 C 63 % 90 % 1017,3 hPa 0,0 l/m 11,4 km/h W-SW 250 0 min 0 min 0,000 mm 243 W/m 10,2 C 8,9 C 17,7 km/h 96,58 %
17.09.2019 12:35 17,9 C 11,8 C 17,8 C 63 % 91 % 1017,3 hPa 0,0 l/m 12,1 km/h SW 225 0 min 0 min 0,000 mm 249 W/m 10,4 C 8,5 C 17,7 km/h 94,87 %
17.09.2019 12:30 17,9 C 11,8 C 17,8 C 63 % 91 % 1017,2 hPa 0,0 l/m 7,9 km/h W-SW 248 0 min 0 min 0,000 mm 255 W/m 10,4 C 10,8 C 12,9 km/h 94,87 %
17.09.2019 12:25 17,9 C 11,6 C 17,8 C 63 % 91 % 1017,2 hPa 0,0 l/m 7,7 km/h SW 226 0 min 0 min 0,000 mm 220 W/m 10,2 C 10,7 C 14,5 km/h 91,67 %
17.09.2019 12:20 17,9 C 11,5 C 17,8 C 63 % 90 % 1017,3 hPa 0,0 l/m 9,1 km/h SW 229 0 min 0 min 0,000 mm 112 W/m 9,9 C 9,8 C 12,9 km/h 96,58 %
17.09.2019 12:15 17,9 C 11,6 C 17,8 C 62 % 90 % 1017,3 hPa 0,0 l/m 9,1 km/h W-SW 238 0 min 0 min 0,000 mm 122 W/m 10,0 C 9,9 C 16,1 km/h 93,22 %
17.09.2019 12:10 17,9 C 11,6 C 17,8 C 62 % 90 % 1017,3 hPa 0,0 l/m 8,9 km/h W-SW 257 0 min 0 min 0,000 mm 132 W/m 10,0 C 10,0 C 12,9 km/h 97,44 %
17.09.2019 12:05 17,9 C 11,7 C 17,8 C 62 % 89 % 1017,2 hPa 0,0 l/m 10,0 km/h W-SW 239 0 min 0 min 0,127 mm 120 W/m 9,9 C 9,5 C 17,7 km/h 100,00 %
17.09.2019 12:00 18,0 C 11,7 C 17,8 C 62 % 89 % 1017,3 hPa 0,0 l/m 7,7 km/h SW 223 0 min 0 min 0,000 mm 133 W/m 9,9 C 10,8 C 12,9 km/h 100,00 %
17.09.2019 11:55 18,0 C 11,8 C 17,8 C 62 % 89 % 1017,3 hPa 0,0 l/m 8,8 km/h SW 219 0 min 0 min 0,000 mm 139 W/m 10,0 C 10,3 C 14,5 km/h 99,15 %
17.09.2019 11:50 18,0 C 11,7 C 17,8 C 62 % 89 % 1017,2 hPa 0,0 l/m 8,6 km/h SW 227 0 min 0 min 0,000 mm 230 W/m 9,9 C 10,3 C 16,1 km/h 99,21 %
17.09.2019 11:45 18,0 C 11,7 C 17,8 C 62 % 88 % 1017,2 hPa 0,0 l/m 8,5 km/h W-SW 242 0 min 0 min 0,000 mm 198 W/m 9,8 C 10,3 C 14,5 km/h 100,00 %
17.09.2019 11:40 18,0 C 11,8 C 17,8 C 62 % 89 % 1017,3 hPa 0,0 l/m 7,6 km/h SW 223 0 min 0 min 0,000 mm 285 W/m 10,0 C 11,0 C 14,5 km/h 98,52 %
17.09.2019 11:35 18,0 C 11,7 C 17,8 C 62 % 88 % 1017,3 hPa 0,0 l/m 5,0 km/h W 281 0 min 0 min 0,000 mm 354 W/m 9,8 C 11,7 C 12,9 km/h 99,06 %
17.09.2019 11:30 18,0 C 11,7 C 17,8 C 62 % 89 % 1017,3 hPa 0,0 l/m 6,5 km/h W 271 0 min 0 min 0,000 mm 311 W/m 9,9 C 11,7 C 19,3 km/h 99,07 %
17.09.2019 11:25 18,0 C 11,5 C 17,8 C 62 % 89 % 1017,4 hPa 0,0 l/m 4,5 km/h W-SW 250 0 min 0 min 0,000 mm 285 W/m 9,8 C 11,5 C 9,7 km/h 100,00 %
17.09.2019 11:20 18,0 C 11,4 C 17,8 C 62 % 90 % 1017,4 hPa 0,0 l/m 4,3 km/h SW 236 0 min 0 min 0,000 mm 204 W/m 9,8 C 11,4 C 9,7 km/h 100,00 %
17.09.2019 11:15 18,0 C 11,3 C 17,8 C 62 % 90 % 1017,4 hPa 0,0 l/m 4,6 km/h W-SW 250 0 min 0 min 0,000 mm 253 W/m 9,7 C 11,3 C 9,7 km/h 96,67 %
17.09.2019 11:10 18,0 C 11,3 C 17,8 C 62 % 90 % 1017,4 hPa 0,0 l/m 5,1 km/h W 266 0 min 0 min 0,000 mm 254 W/m 9,7 C 11,3 C 9,7 km/h 97,30 %
17.09.2019 11:05 18,0 C 11,2 C 17,8 C 62 % 91 % 1017,4 hPa 0,0 l/m 4,4 km/h W 273 0 min 0 min 0,076 mm 248 W/m 9,8 C 11,2 C 11,3 km/h 99,17 %
17.09.2019 11:00 18,0 C 10,9 C 17,8 C 62 % 91 % 1017,3 hPa 0,0 l/m 5,3 km/h NW 318 0 min 0 min 0,000 mm 183 W/m 9,5 C 10,9 C 8,0 km/h 98,31 %
17.09.2019 10:55 18,0 C 10,8 C 17,8 C 62 % 91 % 1017,4 hPa 0,0 l/m 6,3 km/h NW 320 0 min 0 min 0,000 mm 124 W/m 9,4 C 10,8 C 12,9 km/h 100,00 %
17.09.2019 10:50 18,1 C 10,8 C 17,8 C 62 % 91 % 1017,4 hPa 0,0 l/m 4,9 km/h NW 311 0 min 0 min 0,000 mm 142 W/m 9,4 C 10,8 C 8,0 km/h 99,15 %
17.09.2019 10:45 18,1 C 10,9 C 17,8 C 62 % 91 % 1017,5 hPa 0,0 l/m 7,6 km/h NW 306 0 min 0 min 0,000 mm 128 W/m 9,5 C 10,1 C 12,9 km/h 97,44 %
17.09.2019 10:40 18,1 C 11,0 C 17,8 C 62 % 92 % 1017,5 hPa 0,0 l/m 5,9 km/h W-NW 300 0 min 0 min 0,000 mm 107 W/m 9,8 C 11,0 C 11,3 km/h 98,20 %
17.09.2019 10:35 18,1 C 11,0 C 17,8 C 62 % 92 % 1017,6 hPa 0,0 l/m 5,4 km/h W-NW 288 0 min 0 min 0,000 mm 145 W/m 9,8 C 11,0 C 11,3 km/h 96,58 %
17.09.2019 10:30 18,2 C 10,9 C 17,8 C 62 % 92 % 1017,5 hPa 0,0 l/m 5,2 km/h W-NW 298 0 min 0 min 0,000 mm 190 W/m 9,7 C 10,9 C 11,3 km/h 97,50 %
17.09.2019 10:25 18,2 C 10,7 C 17,8 C 62 % 92 % 1017,4 hPa 0,0 l/m 3,5 km/h W-SW 254 0 min 0 min 0,000 mm 156 W/m 9,5 C 10,7 C 9,7 km/h 94,74 %
17.09.2019 10:20 18,2 C 10,7 C 17,8 C 62 % 92 % 1017,4 hPa 0,0 l/m 3,6 km/h W-NW 298 0 min 0 min 0,000 mm 172 W/m 9,5 C 10,7 C 8,0 km/h 97,46 %
17.09.2019 10:15 18,2 C 10,6 C 17,8 C 62 % 92 % 1017,4 hPa 0,0 l/m 4,7 km/h W 280 0 min 0 min 0,000 mm 194 W/m 9,4 C 10,6 C 11,3 km/h 95,73 %
17.09.2019 10:10 18,2 C 10,6 C 17,8 C 62 % 92 % 1017,5 hPa 0,0 l/m 4,2 km/h NW 315 0 min 0 min 0,000 mm 133 W/m 9,4 C 10,6 C 9,7 km/h 97,44 %
17.09.2019 10:05 18,2 C 10,4 C 17,8 C 62 % 92 % 1017,5 hPa 0,0 l/m 6,1 km/h W 281 0 min 0 min 0,051 mm 110 W/m 9,2 C 10,4 C 11,3 km/h 95,12 %
17.09.2019 10:00 18,3 C 10,5 C 17,8 C 62 % 92 % 1017,4 hPa 0,0 l/m 4,1 km/h W-NW 296 0 min 0 min 0,000 mm 101 W/m 9,3 C 10,5 C 9,7 km/h 94,17 %
17.09.2019 09:55 18,3 C 10,5 C 17,8 C 62 % 92 % 1017,4 hPa 0,0 l/m 4,5 km/h W 275 0 min 0 min 0,000 mm 82 W/m 9,3 C 10,5 C 11,3 km/h 97,44 %
17.09.2019 09:50 18,3 C 10,4 C 17,8 C 62 % 92 % 1017,3 hPa 0,0 l/m 8,4 km/h W-NW 296 0 min 0 min 0,000 mm 90 W/m 9,2 C 9,0 C 14,5 km/h 97,30 %
17.09.2019 09:45 18,3 C 10,6 C 17,8 C 62 % 92 % 1017,3 hPa 0,0 l/m 7,7 km/h NW 304 0 min 0 min 0,000 mm 65 W/m 9,4 C 9,7 C 12,9 km/h 96,67 %
17.09.2019 09:40 18,4 C 10,6 C 17,8 C 62 % 92 % 1017,3 hPa 0,0 l/m 4,6 km/h W-NW 291 0 min 0 min 0,000 mm 51 W/m 9,4 C 10,6 C 9,7 km/h 98,29 %
17.09.2019 09:35 18,4 C 10,6 C 17,8 C 62 % 92 % 1017,2 hPa 0,0 l/m 4,2 km/h NW 315 0 min 0 min 0,000 mm 48 W/m 9,4 C 10,6 C 8,0 km/h 97,32 %
17.09.2019 09:30 18,4 C 10,5 C 17,8 C 62 % 92 % 1017,1 hPa 0,0 l/m 5,2 km/h NW 320 0 min 0 min 0,000 mm 76 W/m 9,3 C 10,5 C 9,7 km/h 96,67 %
17.09.2019 09:25 18,4 C 10,6 C 17,8 C 62 % 92 % 1017,0 hPa 0,0 l/m 6,1 km/h NW 313 0 min 0 min 0,000 mm 91 W/m 9,4 C 10,6 C 11,3 km/h 98,29 %
17.09.2019 09:20 18,4 C 10,6 C 17,8 C 62 % 92 % 1017,1 hPa 0,0 l/m 6,9 km/h W-NW 290 0 min 0 min 0,000 mm 109 W/m 9,4 C 10,3 C 12,9 km/h 100,00 %
17.09.2019 09:15 18,4 C 10,6 C 17,8 C 62 % 92 % 1017,0 hPa 0,0 l/m 7,5 km/h NW 307 0 min 0 min 0,000 mm 91 W/m 9,4 C 9,8 C 12,9 km/h 93,16 %
17.09.2019 09:10 18,5 C 10,7 C 17,8 C 62 % 92 % 1017,1 hPa 0,0 l/m 9,9 km/h NW 304 0 min 0 min 0,000 mm 80 W/m 9,5 C 8,4 C 14,5 km/h 95,83 %
17.09.2019 09:05 18,5 C 10,8 C 17,8 C 62 % 92 % 1017,1 hPa 0,2 l/m 10,7 km/h W-NW 283 0 min 5 min 0,026 mm 84 W/m 9,6 C 8,1 C 16,1 km/h 93,16 %
17.09.2019 09:00 18,5 C 11,1 C 17,8 C 62 % 93 % 1017,0 hPa 0,0 l/m 8,4 km/h W-NW 302 0 min 0 min 0,000 mm 50 W/m 10,0 C 9,8 C 14,5 km/h 100,00 %
17.09.2019 08:55 18,6 C 11,2 C 17,8 C 62 % 93 % 1016,9 hPa 0,0 l/m 7,5 km/h NW 326 0 min 0 min 0,000 mm 36 W/m 10,1 C 10,4 C 12,9 km/h 96,33 %
17.09.2019 08:50 18,6 C 11,3 C 17,8 C 62 % 92 % 1016,8 hPa 0,0 l/m 7,2 km/h W-NW 282 0 min 0 min 0,000 mm 45 W/m 10,0 C 10,8 C 12,9 km/h 97,56 %
17.09.2019 08:45 18,6 C 11,3 C 17,8 C 62 % 93 % 1016,8 hPa 0,0 l/m 4,1 km/h W-NW 284 0 min 0 min 0,000 mm 51 W/m 10,2 C 11,3 C 9,7 km/h 98,25 %
17.09.2019 08:40 18,6 C 11,4 C 17,8 C 62 % 92 % 1016,8 hPa 0,0 l/m 4,5 km/h W-NW 283 0 min 0 min 0,000 mm 35 W/m 10,1 C 11,4 C 9,7 km/h 100,00 %
17.09.2019 08:35 18,6 C 11,6 C 17,8 C 62 % 92 % 1016,8 hPa 0,0 l/m 5,7 km/h W-NW 285 0 min 0 min 0,000 mm 22 W/m 10,3 C 11,6 C 12,9 km/h 95,73 %
17.09.2019 08:30 18,7 C 11,7 C 17,8 C 62 % 93 % 1016,7 hPa 0,0 l/m 3,7 km/h W-NW 295 0 min 0 min 0,000 mm 22 W/m 10,6 C 11,7 C 4,8 km/h 100,00 %
17.09.2019 08:25 18,7 C 11,7 C 17,8 C 62 % 93 % 1016,6 hPa 0,0 l/m 3,3 km/h SW 228 0 min 0 min 0,000 mm 31 W/m 10,6 C 11,7 C 6,4 km/h 98,17 %
17.09.2019 08:20 18,7 C 11,8 C 17,8 C 62 % 93 % 1016,6 hPa 0,0 l/m 3,8 km/h W-SW 241 0 min 0 min 0,000 mm 33 W/m 10,7 C 11,8 C 6,4 km/h 96,58 %
17.09.2019 08:15 18,7 C 11,8 C 17,8 C 62 % 92 % 1016,6 hPa 0,0 l/m 4,3 km/h W-SW 251 0 min 0 min 0,000 mm 25 W/m 10,5 C 11,8 C 6,4 km/h 98,33 %
17.09.2019 08:10 18,7 C 11,9 C 17,8 C 62 % 92 % 1016,7 hPa 0,0 l/m 3,7 km/h W-SW 238 0 min 0 min 0,000 mm 25 W/m 10,6 C 11,9 C 6,4 km/h 95,24 %
17.09.2019 08:05 18,7 C 11,9 C 17,8 C 62 % 92 % 1016,8 hPa 0,0 l/m 3,4 km/h W-SW 254 0 min 0 min 0,000 mm 19 W/m 10,6 C 11,9 C 9,7 km/h 95,73 %
17.09.2019 08:00 18,7 C 12,0 C 17,8 C 62 % 92 % 1016,7 hPa 0,0 l/m 7,3 km/h W-SW 251 0 min 0 min 0,000 mm 13 W/m 10,7 C 11,4 C 12,9 km/h 93,33 %
17.09.2019 07:55 18,8 C 12,1 C 17,8 C 63 % 92 % 1016,7 hPa 0,0 l/m 4,4 km/h W-NW 284 0 min 0 min 0,000 mm 12 W/m 10,8 C 12,1 C 12,9 km/h 93,33 %
17.09.2019 07:50 18,8 C 12,1 C 17,8 C 63 % 92 % 1016,7 hPa 0,0 l/m 4,7 km/h W-NW 294 0 min 0 min 0,000 mm 11 W/m 10,8 C 12,1 C 9,7 km/h 94,02 %
17.09.2019 07:45 18,8 C 12,2 C 17,8 C 63 % 92 % 1016,5 hPa 0,0 l/m 4,4 km/h W 272 0 min 0 min 0,000 mm 11 W/m 10,9 C 12,2 C 8,0 km/h 99,17 %
17.09.2019 07:40 18,8 C 12,2 C 17,8 C 63 % 92 % 1016,5 hPa 0,0 l/m 5,3 km/h W-SW 253 0 min 0 min 0,000 mm 10 W/m 10,9 C 12,2 C 11,3 km/h 95,76 %
17.09.2019 07:35 18,9 C 12,3 C 17,8 C 63 % 92 % 1016,5 hPa 0,0 l/m 5,3 km/h W-SW 257 0 min 0 min 0,000 mm 9 W/m 11,0 C 12,3 C 11,3 km/h 98,20 %
17.09.2019 07:30 18,9 C 12,3 C 17,8 C 63 % 92 % 1016,5 hPa 0,0 l/m 5,8 km/h W-SW 242 0 min 0 min 0,000 mm 12 W/m 11,0 C 12,3 C 11,3 km/h 94,02 %
17.09.2019 07:25 18,9 C 12,4 C 17,8 C 63 % 93 % 1016,5 hPa 0,0 l/m 5,8 km/h W-SW 240 0 min 0 min 0,000 mm 9 W/m 11,3 C 12,4 C 9,7 km/h 92,50 %
17.09.2019 07:20 18,9 C 12,4 C 17,8 C 62 % 93 % 1016,5 hPa 0,0 l/m 6,1 km/h SW 220 0 min 0 min 0,000 mm 6 W/m 11,3 C 12,4 C 11,3 km/h 95,73 %
17.09.2019 07:15 18,9 C 12,5 C 17,8 C 62 % 93 % 1016,4 hPa 0,0 l/m 5,6 km/h SW 225 0 min 0 min 0,000 mm 5 W/m 11,4 C 12,5 C 9,7 km/h 97,44 %
17.09.2019 07:10 18,9 C 12,6 C 17,8 C 62 % 93 % 1016,4 hPa 0,0 l/m 6,2 km/h SW 234 0 min 0 min 0,000 mm 5 W/m 11,5 C 12,6 C 11,3 km/h 94,02 %
17.09.2019 07:05 19,0 C 12,6 C 17,8 C 62 % 93 % 1016,3 hPa 0,0 l/m 3,7 km/h SW 215 0 min 0 min 0,000 mm 4 W/m 11,5 C 12,6 C 6,4 km/h 95,00 %
17.09.2019 07:00 19,0 C 12,7 C 17,8 C 62 % 93 % 1016,2 hPa 0,0 l/m 2,6 km/h SW 230 0 min 0 min 0,000 mm 0 W/m 11,6 C 12,7 C 6,4 km/h 95,73 %
17.09.2019 06:55 19,0 C 12,7 C 17,8 C 62 % 93 % 1016,3 hPa 0,0 l/m 2,2 km/h W-SW 240 0 min 0 min 0,000 mm 0 W/m 11,6 C 12,7 C 4,8 km/h 95,80 %
17.09.2019 06:50 19,1 C 12,6 C 17,8 C 62 % 93 % 1016,2 hPa 0,0 l/m 4,4 km/h W-SW 240 0 min 0 min 0,000 mm 0 W/m 11,5 C 12,6 C 9,7 km/h 94,44 %
17.09.2019 06:45 19,1 C 12,7 C 17,8 C 62 % 93 % 1016,1 hPa 0,0 l/m 2,6 km/h SW 229 0 min 0 min 0,000 mm 0 W/m 11,6 C 12,7 C 8,0 km/h 97,52 %
17.09.2019 06:40 19,1 C 12,7 C 17,8 C 62 % 93 % 1015,9 hPa 0,0 l/m 1,5 km/h W-NW 287 0 min 0 min 0,000 mm 0 W/m 11,6 C 12,7 C 4,8 km/h 100,00 %
17.09.2019 06:35 19,1 C 12,7 C 17,8 C 62 % 93 % 1015,9 hPa 0,2 l/m 4,4 km/h W-NW 287 0 min 5 min 0,000 mm 0 W/m 11,6 C 12,7 C 9,7 km/h 97,62 %
17.09.2019 06:30 19,2 C 12,7 C 17,8 C 62 % 93 % 1016,1 hPa 0,0 l/m 5,8 km/h W 259 0 min 0 min 0,000 mm 0 W/m 11,6 C 12,7 C 9,7 km/h 93,86 %
17.09.2019 06:25 19,2 C 12,8 C 17,8 C 62 % 93 % 1016,1 hPa 0,0 l/m 6,5 km/h W-SW 240 0 min 0 min 0,000 mm 0 W/m 11,7 C 12,8 C 12,9 km/h 97,44 %
17.09.2019 06:20 19,2 C 12,9 C 17,8 C 62 % 93 % 1016,1 hPa 0,0 l/m 5,2 km/h W-SW 248 0 min 0 min 0,000 mm 0 W/m 11,8 C 12,9 C 9,7 km/h 97,39 %
17.09.2019 06:15 19,2 C 12,9 C 17,8 C 62 % 93 % 1016,1 hPa 0,2 l/m 5,6 km/h SW 220 0 min 5 min 0,000 mm 0 W/m 11,8 C 12,9 C 9,7 km/h 98,29 %
17.09.2019 06:10 19,2 C 12,9 C 17,8 C 62 % 92 % 1016,1 hPa 0,0 l/m 4,5 km/h SW 226 0 min 0 min 0,000 mm 0 W/m 11,6 C 12,9 C 8,0 km/h 91,45 %
17.09.2019 06:05 19,2 C 12,9 C 17,8 C 62 % 92 % 1016,0 hPa 0,0 l/m 6,2 km/h SW 221 0 min 0 min 0,000 mm 0 W/m 11,6 C 12,9 C 11,3 km/h 93,16 %
17.09.2019 06:00 19,3 C 12,9 C 17,8 C 62 % 92 % 1015,9 hPa 0,0 l/m 5,9 km/h W-SW 244 0 min 0 min 0,000 mm 0 W/m 11,6 C 12,9 C 11,3 km/h 88,03 %
17.09.2019 05:55 19,3 C 12,9 C 17,8 C 61 % 92 % 1016,0 hPa 0,0 l/m 3,7 km/h SW 227 0 min 0 min 0,000 mm 0 W/m 11,6 C 12,9 C 6,4 km/h 92,31 %
17.09.2019 05:50 19,3 C 12,9 C 17,8 C 61 % 92 % 1015,9 hPa 0,0 l/m 5,0 km/h W-SW 238 0 min 0 min 0,000 mm 0 W/m 11,6 C 12,9 C 8,0 km/h 92,31 %
17.09.2019 05:45 19,3 C 12,9 C 17,8 C 61 % 92 % 1015,9 hPa 0,0 l/m 4,0 km/h SW 234 0 min 0 min 0,000 mm 0 W/m 11,6 C 12,9 C 9,7 km/h 91,45 %
17.09.2019 05:40 19,4 C 12,9 C 17,8 C 61 % 91 % 1016,1 hPa 0,0 l/m 5,9 km/h W-SW 244 0 min 0 min 0,000 mm 0 W/m 11,5 C 12,9 C 9,7 km/h 89,26 %
17.09.2019 05:35 19,4 C 12,9 C 17,8 C 61 % 91 % 1016,1 hPa 0,0 l/m 5,2 km/h SW 224 0 min 0 min 0,000 mm 0 W/m 11,5 C 12,9 C 8,0 km/h 95,37 %
17.09.2019 05:30 19,4 C 13,0 C 17,8 C 61 % 91 % 1016,0 hPa 0,0 l/m 5,4 km/h SW 234 0 min 0 min 0,000 mm 0 W/m 11,6 C 13,0 C 12,9 km/h 93,16 %
17.09.2019 05:25 19,4 C 13,1 C 17,8 C 61 % 90 % 1015,9 hPa 0,0 l/m 3,7 km/h W-SW 257 0 min 0 min 0,000 mm 0 W/m 11,5 C 13,1 C 8,0 km/h 95,00 %
17.09.2019 05:20 19,4 C 13,2 C 17,8 C 61 % 90 % 1016,1 hPa 0,0 l/m 5,6 km/h SW 230 0 min 0 min 0,000 mm 0 W/m 11,6 C 13,2 C 9,7 km/h 96,75 %
17.09.2019 05:15 19,5 C 13,2 C 17,8 C 61 % 90 % 1016,0 hPa 0,0 l/m 4,3 km/h SW 234 0 min 0 min 0,000 mm 0 W/m 11,6 C 13,2 C 8,0 km/h 96,67 %
17.09.2019 05:10 19,6 C 13,2 C 17,8 C 61 % 90 % 1016,0 hPa 0,0 l/m 3,9 km/h W-SW 241 0 min 0 min 0,000 mm 0 W/m 11,6 C 13,2 C 8,0 km/h 93,91 %
17.09.2019 05:05 19,6 C 13,2 C 17,8 C 61 % 90 % 1015,9 hPa 0,0 l/m 4,7 km/h W-SW 246 0 min 0 min 0,000 mm 0 W/m 11,6 C 13,2 C 9,7 km/h 96,58 %
17.09.2019 05:00 19,6 C 13,2 C 17,8 C 61 % 89 % 1015,9 hPa 0,0 l/m 4,8 km/h SW 227 0 min 0 min 0,000 mm 0 W/m 11,4 C 13,2 C 11,3 km/h 94,87 %
17.09.2019 04:55 19,6 C 13,3 C 17,8 C 60 % 89 % 1015,9 hPa 0,0 l/m 4,2 km/h SW 235 0 min 0 min 0,000 mm 0 W/m 11,5 C 13,3 C 9,7 km/h 94,87 %
17.09.2019 04:50 19,7 C 13,3 C 17,8 C 60 % 89 % 1016,1 hPa 0,0 l/m 5,7 km/h SW 235 0 min 0 min 0,000 mm 0 W/m 11,5 C 13,3 C 12,9 km/h 93,69 %
17.09.2019 04:45 19,7 C 13,2 C 17,8 C 60 % 89 % 1016,0 hPa 0,0 l/m 2,6 km/h SW 229 0 min 0 min 0,000 mm 0 W/m 11,4 C 13,2 C 6,4 km/h 95,73 %
17.09.2019 04:40 19,7 C 13,3 C 17,8 C 60 % 89 % 1016,1 hPa 0,0 l/m 4,3 km/h W-SW 242 0 min 0 min 0,000 mm 0 W/m 11,5 C 13,3 C 9,7 km/h 95,65 %
17.09.2019 04:35 19,7 C 13,3 C 18,3 C 60 % 89 % 1016,0 hPa 0,0 l/m 2,5 km/h SW 225 0 min 0 min 0,000 mm 0 W/m 11,5 C 13,3 C 4,8 km/h 94,02 %
17.09.2019 04:30 19,8 C 13,4 C 17,8 C 60 % 89 % 1015,9 hPa 0,0 l/m 3,6 km/h SW 221 0 min 0 min 0,000 mm 0 W/m 11,6 C 13,4 C 6,4 km/h 95,93 %
17.09.2019 04:25 19,8 C 13,4 C 17,8 C 60 % 88 % 1016,2 hPa 0,0 l/m 4,9 km/h SW 218 0 min 0 min 0,000 mm 0 W/m 11,5 C 13,4 C 8,0 km/h 91,67 %
17.09.2019 04:20 19,8 C 13,6 C 17,8 C 60 % 87 % 1016,2 hPa 0,0 l/m 5,3 km/h W-SW 247 0 min 0 min 0,000 mm 0 W/m 11,5 C 13,6 C 11,3 km/h 96,30 %
17.09.2019 04:15 19,8 C 13,7 C 17,8 C 60 % 87 % 1016,2 hPa 0,0 l/m 4,7 km/h W-SW 244 0 min 0 min 0,000 mm 0 W/m 11,6 C 13,7 C 9,7 km/h 93,16 %
17.09.2019 04:10 19,8 C 13,8 C 17,8 C 60 % 86 % 1016,0 hPa 0,2 l/m 5,6 km/h SW 226 0 min 5 min 0,000 mm 0 W/m 11,5 C 13,8 C 11,3 km/h 97,44 %
17.09.2019 04:05 19,9 C 13,9 C 17,8 C 60 % 85 % 1016,0 hPa 0,0 l/m 7,7 km/h S-SW 203 0 min 0 min 0,000 mm 0 W/m 11,4 C 13,1 C 12,9 km/h 100,00 %
17.09.2019 04:00 19,9 C 13,9 C 17,8 C 60 % 85 % 1016,0 hPa 0,0 l/m 7,0 km/h SW 217 0 min 0 min 0,025 mm 0 W/m 11,4 C 13,5 C 12,9 km/h 97,44 %
17.09.2019 03:55 19,9 C 13,9 C 17,8 C 59 % 85 % 1016,0 hPa 0,0 l/m 6,6 km/h S-SW 195 0 min 0 min 0,000 mm 0 W/m 11,4 C 13,8 C 11,3 km/h 97,56 %
17.09.2019 03:50 20,0 C 13,9 C 18,3 C 59 % 85 % 1016,1 hPa 0,0 l/m 6,1 km/h SW 221 0 min 0 min 0,000 mm 0 W/m 11,4 C 13,9 C 11,3 km/h 98,20 %
17.09.2019 03:45 20,0 C 13,9 C 17,8 C 59 % 85 % 1015,9 hPa 0,0 l/m 4,9 km/h W-SW 240 0 min 0 min 0,000 mm 0 W/m 11,4 C 13,9 C 9,7 km/h 97,50 %
17.09.2019 03:40 20,1 C 13,9 C 17,8 C 59 % 85 % 1015,9 hPa 0,0 l/m 4,5 km/h SW 234 0 min 0 min 0,000 mm 0 W/m 11,4 C 13,9 C 9,7 km/h 95,73 %
17.09.2019 03:35 20,1 C 14,1 C 17,8 C 59 % 84 % 1015,9 hPa 0,0 l/m 4,7 km/h SW 219 0 min 0 min 0,000 mm 0 W/m 11,4 C 14,1 C 8,0 km/h 97,50 %
17.09.2019 03:30 20,1 C 14,2 C 17,8 C 59 % 83 % 1015,9 hPa 0,0 l/m 3,8 km/h W-SW 239 0 min 0 min 0,000 mm 0 W/m 11,4 C 14,2 C 8,0 km/h 97,50 %
17.09.2019 03:25 20,1 C 14,3 C 17,8 C 59 % 83 % 1015,9 hPa 0,0 l/m 4,8 km/h W-SW 239 0 min 0 min 0,000 mm 0 W/m 11,5 C 14,3 C 9,7 km/h 100,00 %
17.09.2019 03:20 20,2 C 14,3 C 17,8 C 59 % 82 % 1016,1 hPa 0,0 l/m 4,1 km/h SW 225 0 min 0 min 0,000 mm 0 W/m 11,3 C 14,3 C 11,3 km/h 100,00 %
17.09.2019 03:15 20,2 C 14,4 C 17,8 C 59 % 82 % 1016,1 hPa 0,0 l/m 4,9 km/h SW 232 0 min 0 min 0,000 mm 0 W/m 11,4 C 14,4 C 8,0 km/h 100,00 %
17.09.2019 03:10 20,2 C 14,6 C 17,8 C 59 % 81 % 1016,3 hPa 0,0 l/m 5,3 km/h SW 219 0 min 0 min 0,000 mm 0 W/m 11,4 C 14,6 C 8,0 km/h 100,00 %
17.09.2019 03:05 20,2 C 14,6 C 17,8 C 59 % 81 % 1016,3 hPa 0,0 l/m 4,5 km/h SW 225 0 min 0 min 0,000 mm 0 W/m 11,4 C 14,6 C 9,7 km/h 98,29 %
17.09.2019 03:00 20,3 C 14,7 C 17,8 C 59 % 81 % 1016,4 hPa 0,0 l/m 5,0 km/h SW 222 0 min 0 min 0,000 mm 0 W/m 11,5 C 14,7 C 8,0 km/h 99,15 %
17.09.2019 02:55 20,3 C 14,8 C 17,8 C 58 % 80 % 1016,5 hPa 0,0 l/m 5,0 km/h SW 216 0 min 0 min 0,000 mm 0 W/m 11,4 C 14,8 C 11,3 km/h 100,00 %
17.09.2019 02:50 20,4 C 14,7 C 17,8 C 58 % 80 % 1016,5 hPa 0,0 l/m 2,7 km/h SW 217 0 min 0 min 0,000 mm 0 W/m 11,3 C 14,7 C 6,4 km/h 99,12 %
17.09.2019 02:45 20,4 C 14,8 C 17,8 C 59 % 80 % 1016,4 hPa 0,0 l/m 1,6 km/h SW 214 0 min 0 min 0,000 mm 0 W/m 11,4 C 14,8 C 4,8 km/h 97,44 %
17.09.2019 02:40 20,4 C 14,8 C 17,8 C 59 % 80 % 1016,3 hPa 0,0 l/m 1,8 km/h SW 214 0 min 0 min 0,000 mm 0 W/m 11,4 C 14,8 C 4,8 km/h 100,00 %
17.09.2019 02:35 20,4 C 14,7 C 17,8 C 58 % 80 % 1016,3 hPa 0,0 l/m 2,5 km/h SW 223 0 min 0 min 0,000 mm 0 W/m 11,3 C 14,7 C 8,0 km/h 100,00 %
17.09.2019 02:30 20,5 C 14,7 C 17,8 C 58 % 80 % 1016,4 hPa 0,0 l/m 1,4 km/h W-SW 255 0 min 0 min 0,000 mm 0 W/m 11,3 C 14,7 C 3,2 km/h 98,25 %
17.09.2019 02:25 20,5 C 14,7 C 17,8 C 58 % 80 % 1016,4 hPa 0,0 l/m 1,3 km/h W-SW 257 0 min 0 min 0,000 mm 0 W/m 11,3 C 14,7 C 4,8 km/h 99,17 %
17.09.2019 02:20 20,6 C 14,8 C 17,8 C 58 % 80 % 1016,4 hPa 0,0 l/m 0,5 km/h SW 227 0 min 0 min 0,000 mm 0 W/m 11,4 C 14,8 C 3,2 km/h 99,15 %
17.09.2019 02:15 20,6 C 14,9 C 17,8 C 58 % 80 % 1016,4 hPa 0,0 l/m 2,8 km/h SW 227 0 min 0 min 0,000 mm 0 W/m 11,5 C 14,9 C 4,8 km/h 100,00 %
17.09.2019 02:10 20,6 C 14,9 C 17,8 C 58 % 80 % 1016,5 hPa 0,0 l/m 2,9 km/h SW 231 0 min 0 min 0,000 mm 0 W/m 11,5 C 14,9 C 6,4 km/h 100,00 %
17.09.2019 02:05 20,6 C 15,0 C 17,8 C 58 % 79 % 1016,5 hPa 0,0 l/m 2,2 km/h S-SW 198 0 min 0 min 0,000 mm 0 W/m 11,4 C 15,0 C 4,8 km/h 98,29 %
17.09.2019 02:00 20,7 C 15,0 C 17,8 C 58 % 80 % 1016,5 hPa 0,0 l/m 2,8 km/h S-SW 207 0 min 0 min 0,000 mm 0 W/m 11,6 C 15,0 C 8,0 km/h 99,08 %
17.09.2019 01:55 20,7 C 15,1 C 17,8 C 58 % 80 % 1016,3 hPa 0,0 l/m 0,0 km/h S 184 0 min 0 min 0,000 mm 0 W/m 11,7 C 15,1 C 1,6 km/h 98,29 %
17.09.2019 01:50 20,7 C 15,2 C 17,8 C 58 % 79 % 1016,4 hPa 0,0 l/m 1,8 km/h S 184 0 min 0 min 0,000 mm 0 W/m 11,6 C 15,2 C 8,0 km/h 97,50 %
17.09.2019 01:45 20,8 C 15,3 C 17,8 C 58 % 79 % 1016,6 hPa 0,0 l/m 3,3 km/h S-SW 207 0 min 0 min 0,000 mm 0 W/m 11,7 C 15,3 C 6,4 km/h 97,44 %
17.09.2019 01:40 20,8 C 15,3 C 17,8 C 58 % 78 % 1016,6 hPa 0,0 l/m 5,8 km/h S-SW 208 0 min 0 min 0,000 mm 0 W/m 11,5 C 15,3 C 11,3 km/h 96,58 %
17.09.2019 01:35 20,9 C 15,2 C 17,8 C 58 % 78 % 1016,4 hPa 0,0 l/m 4,9 km/h S-SW 207 0 min 0 min 0,000 mm 0 W/m 11,4 C 15,2 C 9,7 km/h 96,61 %
17.09.2019 01:30 20,9 C 15,1 C 17,8 C 58 % 79 % 1016,5 hPa 0,0 l/m 2,4 km/h S-SW 209 0 min 0 min 0,000 mm 0 W/m 11,5 C 15,1 C 6,4 km/h 97,50 %
17.09.2019 01:25 20,9 C 15,2 C 17,8 C 58 % 79 % 1016,6 hPa 0,0 l/m 2,0 km/h SW 220 0 min 0 min 0,000 mm 0 W/m 11,6 C 15,2 C 4,8 km/h 98,25 %
17.09.2019 01:20 21,0 C 15,3 C 17,8 C 58 % 78 % 1016,5 hPa 0,0 l/m 2,3 km/h SW 216 0 min 0 min 0,000 mm 0 W/m 11,5 C 15,3 C 4,8 km/h 100,00 %
17.09.2019 01:15 21,0 C 15,3 C 17,8 C 58 % 78 % 1016,4 hPa 0,0 l/m 1,8 km/h W-SW 249 0 min 0 min 0,000 mm 0 W/m 11,5 C 15,3 C 6,4 km/h 97,30 %
17.09.2019 01:10 21,1 C 15,3 C 17,8 C 58 % 78 % 1016,4 hPa 0,0 l/m 0,9 km/h W 273 0 min 0 min 0,000 mm 0 W/m 11,5 C 15,3 C 4,8 km/h 99,19 %
17.09.2019 01:05 21,1 C 15,3 C 17,8 C 58 % 78 % 1016,3 hPa 0,0 l/m 0,9 km/h W-SW 240 0 min 0 min 0,000 mm 0 W/m 11,5 C 15,3 C 3,2 km/h 100,00 %
17.09.2019 01:00 21,1 C 15,4 C 17,8 C 57 % 77 % 1016,2 hPa 0,0 l/m 0,2 km/h W-SW 240 0 min 0 min 0,000 mm 0 W/m 11,4 C 15,4 C 1,6 km/h 98,29 %
17.09.2019 00:55 21,1 C 15,4 C 17,8 C 57 % 78 % 1016,3 hPa 0,0 l/m 0,9 km/h W-SW 240 0 min 0 min 0,000 mm 0 W/m 11,6 C 15,4 C 4,8 km/h 100,00 %
17.09.2019 00:50 21,2 C 15,5 C 17,8 C 57 % 78 % 1016,6 hPa 0,0 l/m 4,3 km/h W-SW 240 0 min 0 min 0,000 mm 0 W/m 11,7 C 15,5 C 9,7 km/h 97,44 %
17.09.2019 00:45 21,2 C 15,5 C 17,8 C 57 % 78 % 1016,6 hPa 0,0 l/m 2,8 km/h SW 233 0 min 0 min 0,000 mm 0 W/m 11,7 C 15,5 C 9,7 km/h 99,17 %
17.09.2019 00:40 21,2 C 15,4 C 17,8 C 57 % 78 % 1016,6 hPa 0,0 l/m 2,1 km/h W 261 0 min 0 min 0,000 mm 0 W/m 11,6 C 15,4 C 6,4 km/h 100,00 %
17.09.2019 00:35 21,3 C 15,4 C 17,8 C 57 % 78 % 1016,7 hPa 0,0 l/m 3,5 km/h SW 232 0 min 0 min 0,000 mm 0 W/m 11,6 C 15,4 C 8,0 km/h 100,00 %
17.09.2019 00:30 21,3 C 15,4 C 17,8 C 57 % 78 % 1016,8 hPa 0,0 l/m 1,9 km/h W-SW 244 0 min 0 min 0,000 mm 0 W/m 11,6 C 15,4 C 4,8 km/h 99,19 %
17.09.2019 00:25 21,4 C 15,6 C 17,8 C 57 % 78 % 1016,8 hPa 0,0 l/m 4,3 km/h W-SW 247 0 min 0 min 0,000 mm 0 W/m 11,8 C 15,6 C 11,3 km/h 100,00 %
17.09.2019 00:20 21,4 C 15,7 C 17,8 C 57 % 77 % 1016,8 hPa 0,0 l/m 5,8 km/h SW 225 0 min 0 min 0,000 mm 0 W/m 11,7 C 15,7 C 11,3 km/h 100,00 %
17.09.2019 00:15 21,4 C 15,4 C 17,8 C 57 % 78 % 1017,0 hPa 0,0 l/m 4,7 km/h S-SW 201 0 min 0 min 0,000 mm 0 W/m 11,6 C 15,4 C 9,7 km/h 98,31 %
17.09.2019 00:10 21,5 C 15,2 C 17,8 C 57 % 80 % 1016,8 hPa 0,0 l/m 1,4 km/h S-SW 208 0 min 0 min 0,000 mm 0 W/m 11,8 C 15,2 C 6,4 km/h 99,07 %
17.09.2019 00:05 21,5 C 15,2 C 17,8 C 57 % 79 % 1016,9 hPa 0,0 l/m 2,0 km/h W-SW 242 0 min 0 min 0,000 mm 0 W/m 11,6 C 15,2 C 4,8 km/h 100,00 %
17.09.2019 00:00 21,6 C 15,2 C 17,8 C 57 % 80 % 1016,9 hPa 0,0 l/m 2,9 km/h W-SW 242 0 min 0 min 0,000 mm 0 W/m 11,8 C 15,2 C 6,4 km/h 98,41 %
_ Min-Zeit 12:05 09:35 00:00 00:00 19:00 18:05 - 01:55 - - - - - - 19:00 09:05 01:00 06:00
Minimum _ 17,9 C 10,4 C 17,8 C 57 % 66 % 1014,9 hPa - 0,0 km/h - - - - - - 8,1 C 8,1 C 1,6 km/h 88,03 %
_ Max-Zeit 00:00 17:55 03:50 14:55 06:15 10:35 04:10 15:30 - - 13:00 04:10 15:05 14:40 17:30 00:20 17:45 00:05
Maximum _ 21,6 C 16,3 C 18,3 C 64 % 93 % 1017,6 hPa 0,2 l/m 16,7 km/h
SW
- - 5 min 5 min 0,178 mm 591 W/m 12,1 C 15,7 C 27,4 km/h
SW
100,00 %
Durchschnitt _ 19,1 C 13,3 C 17,8 C 61 % 85 % 1016,3 hPa #0,8 l/m 7,0 km/h SW - #3:15 h #20 min. #1,245 mm 177 W/m 10,9 C 12,3 C 12,6 km/h 97,48 %